[[{"header":{"parameterUnit":"m.s-1","parameterCategory":1,"la1":30.2991,"la2":30.254,"lo1":-89.0895,"lo2":-89.0444,"dy":0.0017,"dx":0.0017,"nx":28,"ny":28,"refTime":"2024-07-11T21:00:00:Z","depth":0,"parameterNumber":2,"parameterNumberName":"U-component_of_WINDS"},"data":[0,0,0,0,0,0,0,0,0,0,0,0,0,0,0,0,0,0,0,0,0,0,0,0,0,0,0,0,0,0,0,0,0,0,0,0,0,0,0,0,0,0,0,0,0,0,0,0,0,0,0,0,0,0,0,0,0,0,2.0294,2.0295,0,2.0392,2.0393,2.0394,2.0383,2.0381,2.038,2.0378,2.0484,2.0488,2.0492,0,0,0,0,0,0,0,0,0,0,0,0,0,2.01,2.0104,2.0294,2.0295,2.0296,2.0392,2.0393,2.0395,2.0383,2.0381,2.0379,2.0378,2.0483,2.0488,2.0493,0,0,0,0,0,0,0,0,0,0,0,0,0,2.019,2.0105,2.0293,2.0302,2.0303,2.0392,2.0393,2.0395,2.0384,2.0381,2.0379,2.0377,2.0481,2.0487,2.0494,2.0581,0,0,2.0513,2.0516,0,0,0,0,0,0,0,0,2.0185,2.0197,2.0299,2.0301,2.0303,2.0373,2.0364,2.0458,2.0384,2.0353,2.0378,2.0375,2.0449,2.0458,2.0482,2.0586,2.0591,2.0514,2.0518,2.0521,2.0522,0,0,0,0,0,0,0,2.0179,2.0193,2.0333,2.0301,2.0303,2.0302,2.0312,2.0382,2.0414,2.0356,2.0355,2.0367,2.045,2.0476,2.0484,2.0592,2.0514,2.0519,2.0523,2.0526,2.0775,2.0778,0,0,0,0,0,0,2.017,2.0188,2.033,2.0336,2.0237,2.0308,2.0319,2.0353,2.0413,2.042,2.0369,2.0366,2.0466,2.0477,2.0488,2.0596,2.0521,2.0527,2.053,2.0773,2.0776,2.0779,0,0,0,0,0,0,2.0166,2.0183,2.0326,2.0262,2.028,2.0314,2.0352,2.0356,2.0382,2.0423,2.0429,2.0389,2.0465,2.0479,2.0558,2.0599,2.0529,2.0535,2.0769,2.0774,2.0777,2.0811,0,0,0,0,0,0,2.016,2.0181,2.0214,2.0262,2.0283,2.0393,2.0354,2.036,2.0393,2.039,2.0443,2.045,2.0464,2.0549,2.0565,2.0607,2.054,2.0766,2.0771,2.0776,2.0807,2.0816,2.0824,0,0,0,0,0,2.0154,2.022,2.0215,2.0233,2.0324,2.0395,2.0407,2.042,2.0396,2.043,2.0456,2.0448,2.0592,2.0557,2.0575,2.062,2.0763,2.077,2.0776,2.0803,2.0814,2.0824,0,0,0,0,0,0,2.0177,2.0227,2.0222,2.0306,2.0346,2.0393,2.0436,2.0432,2.0481,2.0477,2.0493,2.0505,2.0585,2.061,2.057,2.0709,2.0675,2.0685,2.0689,2.07,2.0709,2.0702,2.0546,0,0,0,0,0,2.0191,2.0243,2.0284,2.0355,2.0375,2.0402,2.0433,2.044,2.0483,2.05,2.0532,2.0576,2.0631,2.0667,2.072,2.081,2.0823,2.085,2.0859,2.0866,2.0875,2.0926,2.0939,2.0799,2.0799,2.0799,0,0,2.0223,2.0256,2.0288,2.036,2.0392,2.0447,2.0416,2.0476,2.0517,2.051,2.0586,2.0612,2.0661,2.0747,2.0786,2.077,2.0916,2.0874,2.0879,2.0884,2.0934,2.0947,2.0958,2.0803,2.0803,2.0802,0,0,2.0308,2.0338,2.04,2.0433,2.0481,2.0498,2.0513,2.0561,2.0577,2.0654,2.065,2.07,2.0794,2.083,2.0861,2.096,2.0956,2.0977,2.1023,2.1073,2.1084,2.1094,2.1131,2.1144,2.0986,2.0986,2.0986,0,2.0341,2.0422,2.0433,2.0493,2.0526,2.052,2.0584,2.0616,2.068,2.0703,2.0684,2.0803,2.0836,2.093,2.0954,2.0979,2.0998,2.0972,2.1081,2.1091,2.1101,2.1136,2.115,2.0988,2.0988,2.0988,2.0987,0,2.0461,2.0518,2.0563,2.0623,2.0661,2.0722,2.0744,2.0782,2.0785,2.0805,2.0885,2.0924,2.0985,2.1008,2.1012,2.1104,2.1092,2.1077,2.1044,2.1116,2.115,2.1163,2.0992,2.0991,2.099,2.0989,0,0,2.0565,2.063,2.0646,2.0674,2.0727,2.0772,2.0834,2.0893,2.0925,2.0969,2.1023,2.1103,2.109,2.1124,2.1133,2.1177,2.1255,2.1156,2.1158,2.1174,2.1359,2.1371,2.1386,2.1251,2.1254,2.1256,2.1355,0,2.0656,2.0764,2.0776,2.0874,2.0927,2.0923,2.0978,2.1017,2.1038,2.1088,2.1111,2.1168,2.1145,2.1166,2.1209,2.1236,2.1292,2.1229,2.1304,2.1306,2.1292,2.1404,2.1416,2.1508,2.1368,2.1371,2.1372,0,2.0777,2.0824,2.0926,2.0973,2.0995,2.1044,2.1099,2.1146,2.1191,2.1204,2.1242,2.1246,2.1312,2.1275,2.1368,2.1324,2.1356,2.1374,2.1378,2.1386,2.1344,2.1416,2.1538,2.1552,2.1393,2.1391,2.139,0,2.0843,2.0932,2.1005,2.1029,2.1085,2.1119,2.1144,2.1187,2.1222,2.1271,2.1294,2.135,2.1381,2.1426,2.1445,2.1416,2.1537,2.1501,2.1551,2.155,2.1577,2.1575,2.1706,2.1595,2.1595,2.1595,2.1595,0,2.0945,2.1008,2.1036,2.1081,2.1152,2.1166,2.1237,2.1261,2.1299,2.135,2.135,2.1399,2.142,2.1473,2.1488,2.1563,2.1577,2.159,2.1594,2.1591,2.159,2.1613,2.1607,2.1599,2.1598,2.1597,2.1596,0,2.1032,2.1052,2.1132,2.1178,2.1191,2.1242,2.1282,2.1327,2.1346,2.1411,2.1427,2.146,2.1521,2.1544,2.1619,2.163,2.1717,2.1715,2.1702,2.1703,2.1751,2.1747,2.1903,2.1925,2.1798,2.1799,2.18,0,2.1096,2.1144,2.1195,2.1228,2.1254,2.1308,2.1344,2.136,2.1397,2.1452,2.1491,2.1551,2.1601,2.17,2.1731,2.1789,2.1789,2.184,2.1798,2.1794,2.1792,2.1789,2.1794,2.1848,2.1849,2.185,2.1851,0,2.1207,2.1215,2.1265,2.1319,2.136,2.1404,2.1446,2.1474,2.1497,2.1539,2.1601,2.1639,2.1716,2.1777,2.1836,2.1864,2.1863,2.1864,2.1879,2.1877,2.1867,2.1874,2.1724,2.186,2.186,2.1859,2.1858,2.1858,2.1286,2.1329,2.1372,2.1427,2.1461,2.15,2.1545,2.157,2.1621,2.1684,2.1691,2.1758,2.1803,2.1883,2.1913,2.1967,2.1954,2.1975,2.1981,2.1986,2.199,2.1857,2.1978,2.1978,2.1978,2.1978,2.1977,0,2.1399,2.1426,2.1477,2.1535,2.158,2.1572,2.1619,2.1657,2.1716,2.1757,2.1806,2.1878,2.1938,2.1973,2.2033,2.207,2.2071,2.2085,2.2083,2.209,2.1998,2.198,2.2084,2.2084,2.2084,2.2083,2.2083,2.2083,2.1463,2.1536,2.1549,2.1639,2.1666,2.1731,2.1758,2.1796,2.1829,2.1909,2.1958,2.198,2.202,2.2083,2.2138,2.2147,2.217,2.2185,2.2194,2.2107,2.2096,2.2086,2.2069,2.219,2.219,2.2282,2.2282,2.2283]},{"header":{"parameterUnit":"m.s-1","parameterCategory":1,"la1":30.2991,"la2":30.254,"lo1":-89.0895,"lo2":-89.0444,"dy":0.0017,"dx":0.0017,"nx":28,"ny":28,"refTime":"2024-07-11T21:00:00:Z","depth":0,"parameterNumber":3,"parameterNumberName":"V-component_of_WINDS"},"data":[0,0,0,0,0,0,0,0,0,0,0,0,0,0,0,0,0,0,0,0,0,0,0,0,0,0,0,0,0,0,0,0,0,0,0,0,0,0,0,0,0,0,0,0,0,0,0,0,0,0,0,0,0,0,0,0,0,0,0.3948,0.3948,0,0.3971,0.3972,0.3972,0.3969,0.3969,0.3968,0.3968,0.3992,0.3993,0.3994,0,0,0,0,0,0,0,0,0,0,0,0,0,0.3898,0.3899,0.3948,0.3948,0.3948,0.3971,0.3972,0.3972,0.3969,0.3969,0.3968,0.3968,0.3992,0.3993,0.3994,0,0,0,0,0,0,0,0,0,0,0,0,0,0.3921,0.3899,0.3948,0.395,0.395,0.3971,0.3972,0.3972,0.3969,0.3969,0.3968,0.3968,0.3992,0.3993,0.3994,0.4015,0,0,0.3999,0.4,0,0,0,0,0,0,0,0,0.3919,0.3922,0.3949,0.3949,0.395,0.3967,0.3963,0.3987,0.397,0.3962,0.3968,0.3967,0.3984,0.3986,0.3992,0.4016,0.4017,0.3999,0.4,0.4001,0.4001,0,0,0,0,0,0,0,0.3918,0.3921,0.3957,0.3949,0.395,0.3949,0.3951,0.3968,0.3976,0.3963,0.3962,0.3965,0.3984,0.3991,0.3993,0.4018,0.3999,0.4,0.4001,0.4002,0.4058,0.4059,0,0,0,0,0,0,0.3916,0.392,0.3956,0.3958,0.3933,0.395,0.3953,0.3962,0.3976,0.3977,0.3966,0.3965,0.3988,0.3991,0.3993,0.4017,0.4001,0.4002,0.4003,0.4058,0.4058,0.4059,0,0,0,0,0,0,0.3915,0.3919,0.3955,0.3939,0.3943,0.3952,0.3962,0.3963,0.3969,0.3978,0.398,0.3971,0.3988,0.3991,0.4009,0.4018,0.4003,0.4004,0.4057,0.4058,0.4059,0.4066,0,0,0,0,0,0,0.3913,0.3919,0.3927,0.3939,0.3944,0.3971,0.3962,0.3964,0.3972,0.3971,0.3983,0.3985,0.3988,0.4007,0.4011,0.402,0.4005,0.4056,0.4057,0.4058,0.4065,0.4067,0.4069,0,0,0,0,0,0.3912,0.3929,0.3928,0.3932,0.3955,0.3972,0.3975,0.3978,0.3972,0.398,0.3986,0.3984,0.4017,0.4009,0.4013,0.4023,0.4056,0.4057,0.4058,0.4064,0.4067,0.4069,0,0,0,0,0,0,0.3918,0.393,0.3929,0.3951,0.396,0.3971,0.3982,0.3981,0.3992,0.3991,0.3995,0.3997,0.4015,0.4021,0.4012,0.4043,0.4035,0.4038,0.4038,0.4041,0.4043,0.4041,0.4007,0,0,0,0,0,0.3922,0.3935,0.3945,0.3963,0.3967,0.3974,0.3981,0.3983,0.3993,0.3997,0.4004,0.4013,0.4026,0.4034,0.4045,0.4066,0.4068,0.4075,0.4076,0.4078,0.408,0.4089,0.4092,0.4063,0.4063,0.4063,0,0,0.393,0.3938,0.3946,0.3964,0.3972,0.3984,0.3977,0.3991,0.4001,0.3999,0.4016,0.4022,0.4032,0.4051,0.406,0.4057,0.4088,0.408,0.4081,0.4082,0.4091,0.4094,0.4096,0.4064,0.4064,0.4064,0,0,0.3951,0.3959,0.3974,0.3982,0.3993,0.3997,0.4,0.4011,0.4015,0.4032,0.4031,0.4041,0.4063,0.407,0.4076,0.4098,0.4097,0.4102,0.4112,0.4122,0.4124,0.4126,0.4133,0.4135,0.4104,0.4104,0.4104,0,0.396,0.3979,0.3982,0.3996,0.4003,0.4002,0.4017,0.4024,0.4038,0.4043,0.4039,0.4064,0.4072,0.4092,0.4097,0.4102,0.4106,0.4101,0.4123,0.4125,0.4127,0.4134,0.4136,0.4105,0.4105,0.4104,0.4104,0,0.3989,0.4002,0.4013,0.4026,0.4035,0.4049,0.4053,0.4062,0.4062,0.4066,0.4083,0.4091,0.4104,0.4109,0.411,0.4129,0.4126,0.4123,0.4115,0.413,0.4136,0.4139,0.4105,0.4105,0.4105,0.4105,0,0,0.4015,0.4029,0.4033,0.4038,0.405,0.406,0.4074,0.4086,0.4092,0.4102,0.4113,0.413,0.4127,0.4134,0.4135,0.4144,0.4159,0.4139,0.4139,0.4142,0.4179,0.4181,0.4184,0.4158,0.4159,0.4159,0.4178,0,0.4037,0.4061,0.4063,0.4085,0.4096,0.4094,0.4106,0.4114,0.4118,0.4128,0.4132,0.4143,0.4138,0.4143,0.4151,0.4156,0.4166,0.4154,0.4167,0.4168,0.4164,0.4187,0.419,0.4207,0.418,0.4181,0.4181,0,0.4066,0.4075,0.4098,0.4106,0.4111,0.4122,0.4132,0.4142,0.415,0.4152,0.416,0.416,0.4173,0.4165,0.4182,0.4174,0.4179,0.4182,0.4183,0.4184,0.4175,0.4188,0.4213,0.4215,0.4185,0.4185,0.4184,0,0.4081,0.41,0.4115,0.412,0.4131,0.4138,0.4143,0.4151,0.4157,0.4167,0.4171,0.4181,0.4187,0.4195,0.4197,0.4192,0.4214,0.4207,0.4216,0.4216,0.4221,0.422,0.4246,0.4225,0.4225,0.4225,0.4225,0,0.4105,0.4118,0.4122,0.4132,0.4146,0.4149,0.4163,0.4167,0.4174,0.4184,0.4183,0.4192,0.4195,0.4204,0.4206,0.422,0.4222,0.4224,0.4224,0.4224,0.4223,0.4227,0.4226,0.4226,0.4225,0.4225,0.4225,0,0.4125,0.4128,0.4145,0.4153,0.4155,0.4166,0.4172,0.4181,0.4184,0.4196,0.4199,0.4204,0.4215,0.4218,0.4232,0.4233,0.4248,0.4248,0.4245,0.4245,0.4253,0.4252,0.4282,0.4285,0.4263,0.4263,0.4263,0,0.4139,0.4149,0.4158,0.4165,0.4169,0.418,0.4186,0.4188,0.4195,0.4205,0.4212,0.4222,0.4231,0.4248,0.4253,0.4262,0.4262,0.4271,0.4263,0.4262,0.4261,0.426,0.426,0.4273,0.4273,0.4273,0.4273,0,0.4164,0.4165,0.4175,0.4184,0.4192,0.42,0.4207,0.4212,0.4215,0.4223,0.4233,0.424,0.4253,0.4263,0.4272,0.4277,0.4275,0.4276,0.4278,0.4277,0.4275,0.4275,0.4249,0.4275,0.4275,0.4275,0.4275,0.4274,0.4181,0.419,0.4197,0.4207,0.4213,0.4219,0.4227,0.4231,0.424,0.4251,0.4251,0.4262,0.4269,0.4282,0.4287,0.4295,0.4292,0.4296,0.4297,0.4297,0.4298,0.4274,0.4297,0.4297,0.4297,0.4297,0.4297,0,0.4205,0.421,0.4219,0.4229,0.4236,0.4234,0.4242,0.4248,0.4258,0.4265,0.4273,0.4284,0.4294,0.4299,0.4308,0.4314,0.4313,0.4316,0.4315,0.4316,0.43,0.4297,0.4316,0.4316,0.4316,0.4316,0.4316,0.4316,0.4219,0.4232,0.4234,0.425,0.4254,0.4265,0.4269,0.4275,0.428,0.4293,0.43,0.4303,0.4309,0.4318,0.4326,0.4328,0.4331,0.4334,0.4334,0.4319,0.4317,0.4315,0.4312,0.4335,0.4335,0.4349,0.435,0.435]}]]